GFSMA_sfc_temp_057.txt.gz
Temp
74 76 75 73 72 73 73 73 74 75 75 77 78 83 82 79 80 78 74 81 81 82 82 82 82 82 81 81 81 81 81 80 81 81 81 80 80 80 80 80 80 80 79
75 76 75 77 75 75 73 72 76 75 76 78 79 82 82 80 79 79 78 77 81 81 82 82 82 82 82 82 82 81 81 81 80 80 80 80 79 80 80 80 79 80 79
76 77 75 77 77 76 76 77 80 78 78 79 79 81 84 81 78 77 77 78 77 81 82 82 82 82 82 82 82 81 81 80 80 80 79 79 79 79 79 79 79 79 78
80 76 73 73 75 77 75 79 74 74 74 76 78 76 79 80 79 78 78 78 76 79 80 81 81 81 82 82 82 82 81 80 80 80 79 79 79 79 79 78 78 78 78
82 75 73 73 75 75 75 76 77 76 74 78 80 76 75 78 81 84 78 80 76 78 77 80 80 80 82 83 82 82 81 80 79 79 79 79 79 78 78 78 78 78 77
81 76 74 75 75 76 76 76 78 76 75 75 84 79 75 80 79 76 78 81 79 80 78 77 75 77 81 83 81 82 82 81 79 79 78 78 78 78 78 77 77 77 77
81 77 75 74 76 75 76 77 76 75 76 73 71 72 73 77 80 80 78 75 78 79 77 75 73 75 76 80 81 81 82 81 80 80 79 78 78 77 77 76 76 76 77
80 79 76 75 77 76 76 76 75 73 72 73 70 68 71 72 77 77 76 78 76 77 77 76 75 75 74 74 76 80 80 81 82 81 79 78 77 76 76 76 75 75 76
81 80 78 76 76 76 75 75 75 74 71 71 73 71 68 65 68 72 74 74 76 74 75 76 76 76 74 73 76 78 79 79 81 80 78 77 76 76 76 76 76 75 75
81 80 79 78 77 75 76 76 78 74 73 71 71 75 73 71 66 66 71 73 75 76 74 75 75 75 74 73 76 76 78 78 78 79 79 78 77 77 77 77 76 76 76
80 81 79 79 77 76 75 75 76 75 74 72 70 70 71 71 70 67 64 69 72 73 74 75 75 73 74 72 71 74 77 77 77 78 78 78 78 78 78 78 78 77 77
81 80 81 80 78 77 76 75 75 76 73 74 72 71 71 70 69 70 67 66 73 72 74 73 73 74 73 71 77 77 77 76 76 76 76 77 78 79 80 79 79 79 78
80 78 79 79 79 78 77 77 76 76 74 74 73 72 71 71 72 71 69 69 71 73 73 73 75 75 77 73 74 76 77 74 74 73 73 74 76 77 78 79 79 79 79
81 83 82 80 80 79 78 77 76 76 75 74 75 73 71 71 71 72 72 70 67 67 69 72 73 75 76 75 75 76 74 72 72 71 71 72 73 74 75 75 75 76 76
81 81 82 80 79 79 78 76 76 76 75 75 74 74 72 72 72 72 73 72 69 64 66 71 71 74 74 75 75 75 72 73 72 71 70 70 71 71 72 73 72 72 72
79 80 81 81 80 79 80 77 76 76 75 74 74 73 73 71 72 72 73 73 71 69 66 70 72 73 75 77 75 74 74 72 71 70 70 69 70 70 70 70 70 70 70
79 78 78 79 81 80 78 78 75 76 75 75 75 73 73 73 72 72 71 72 71 70 67 69 72 72 72 72 72 71 74 73 71 70 69 69 69 69 69 69 69 69 69
76 79 79 80 80 80 79 77 76 80 77 75 75 75 74 77 71 71 71 71 71 71 70 68 69 70 71 70 71 71 75 79 74 72 69 68 68 68 67 67 66 67 67
81 80 80 80 81 80 79 79 79 78 77 77 78 77 76 75 75 76 69 71 70 72 69 68 69 68 69 69 69 70 71 72 76 74 69 68 68 67 67 66 65 64 64
81 81 82 82 80 81 81 80 80 79 79 79 78 79 79 76 76 76 73 74 72 69 69 67 67 68 69 69 69 69 69 72 73 78 74 71 69 68 67 65 65 64 62
81 82 82 81 81 81 83 80 81 80 79 79 80 79 80 79 77 76 77 77 75 72 67 75 66 66 67 67 70 69 72 74 73 74 70 67 68 67 67 66 68 67 64
82 82 80 82 81 83 76 73 79 81 81 80 79 80 81 76 75 72 71 74 77 75 75 71 73 71 66 70 69 73 73 69 65 72 68 67 66 66 66 67 68 67 64
82 81 82 81 81 82 72 70 72 83 82 81 80 81 80 83 75 78 71 70 70 70 75 77 73 69 69 73 72 68 70 66 64 67 66 64 67 66 67 69 67 65 65
82 82 81 82 82 82 71 68 70 82 82 82 82 82 81 81 81 78 77 75 75 75 73 76 77 75 76 72 72 70 68 67 66 67 67 62 65 65 66 67 65 64 63
82 82 82 81 81 82 67 66 68 80 82 82 82 82 82 81 75 68 77 76 75 76 72 68 70 70 69 67 69 67 66 64 63 64 66 64 64 64 64 64 63 63 62
83 83 83 83 78 82 68 64 66 81 80 81 83 83 71 77 67 64 75 77 74 75 73 66 69 66 66 67 66 67 66 64 65 62 65 64 63 63 62 63 61 62 61

GFSMA_sfc_temp_060.txt.gz
Temp
72 73 73 72 72 72 72 72 72 74 74 77 78 77 76 75 75 75 74 81 81 81 82 82 81 81 81 81 81 80 80 80 80 80 80 80 80 79 79 79 79 79 78
72 72 72 73 72 73 72 72 72 74 73 75 78 78 78 77 76 77 75 77 81 81 81 82 82 81 82 81 81 81 81 80 80 80 80 79 79 79 79 79 79 79 79
74 73 72 73 73 73 73 73 73 74 73 76 77 79 80 78 76 74 74 73 77 81 81 82 82 81 82 82 81 81 80 80 80 79 79 79 79 79 79 79 79 78 78
75 74 73 73 74 74 73 72 72 72 73 74 75 75 75 75 76 75 74 75 74 78 80 81 81 81 82 82 82 81 80 80 79 79 79 79 79 79 79 78 78 78 78
76 73 72 73 74 73 73 74 72 74 73 75 75 72 73 77 77 79 77 75 74 75 75 78 80 80 82 83 82 82 81 80 79 79 79 78 78 78 78 77 77 77 77
76 73 73 74 73 73 73 73 73 75 73 72 80 75 72 75 74 74 75 77 74 76 75 75 74 76 80 82 82 82 81 81 79 79 78 78 77 77 77 77 77 77 77
78 75 73 73 74 73 74 74 73 73 72 70 70 70 70 72 74 73 73 73 74 75 74 73 72 73 75 80 80 80 81 81 80 79 78 78 77 77 77 76 75 76 77
77 76 74 73 73 73 73 74 73 71 70 69 68 65 66 70 72 74 72 74 73 74 75 75 73 73 72 73 75 80 80 81 81 80 79 78 77 76 76 75 75 75 75
78 77 76 74 75 73 73 72 73 72 69 69 70 69 64 63 65 70 71 72 72 72 72 74 74 73 72 72 75 77 79 78 80 81 78 77 76 76 76 75 75 75 75
78 78 77 76 75 73 73 73 75 72 71 68 69 72 70 68 65 66 69 70 70 73 71 71 73 73 72 72 75 76 78 77 79 79 78 78 77 77 77 76 76 75 75
77 79 77 76 75 74 74 73 74 72 71 70 69 67 68 68 67 65 64 67 70 70 70 72 73 72 72 71 70 73 77 76 76 77 78 78 78 78 78 77 77 77 77
76 77 79 77 76 74 74 73 73 73 72 71 70 68 69 69 68 66 64 65 70 70 70 71 71 71 71 70 75 76 76 75 75 76 76 76 77 78 79 79 79 78 78
73 75 76 76 76 75 75 74 74 73 72 71 71 70 69 69 69 68 67 66 66 69 69 70 71 70 73 69 71 75 76 74 74 73 73 74 75 76 78 79 79 79 79
77 78 78 78 77 77 75 74 73 74 73 72 72 70 69 69 69 69 69 67 64 64 65 70 70 71 72 72 72 75 73 72 72 71 71 71 72 74 75 75 75 75 76
77 77 79 78 78 77 76 74 73 73 74 73 71 72 70 69 69 69 69 69 69 63 64 68 69 71 75 73 74 74 71 73 71 70 70 70 70 71 72 73 73 72 72
76 77 77 79 79 77 77 74 74 74 74 73 73 71 71 70 70 69 69 68 68 68 64 68 69 70 74 76 75 73 73 72 71 70 70 69 69 70 70 71 70 70 70
74 75 77 78 78 78 76 75 74 75 74 74 73 72 72 71 70 69 68 68 67 66 66 68 68 70 68 71 72 73 72 72 71 69 69 68 68 68 69 69 68 68 68
75 78 75 76 77 78 76 77 75 77 75 73 75 73 74 75 70 69 68 68 67 67 67 65 66 68 68 68 71 69 72 76 73 72 69 68 67 67 67 67 66 66 66
77 76 77 76 76 77 77 77 77 77 75 76 75 75 75 73 73 73 68 69 67 68 66 66 67 66 67 67 66 67 67 72 73 73 68 67 67 67 66 65 64 63 63
77 77 76 78 78 78 79 79 78 77 77 77 77 77 76 75 75 75 73 72 71 67 65 65 64 66 66 68 67 69 66 66 73 76 75 72 69 68 66 64 64 64 60
79 79 78 77 78 79 80 79 79 78 77 77 78 77 77 77 75 76 76 75 73 68 68 67 63 64 64 65 69 69 71 73 72 72 70 69 69 66 66 65 67 66 63
78 78 78 79 76 80 74 72 78 79 79 78 77 78 78 75 74 71 71 73 76 73 72 71 72 68 73 73 67 74 73 66 65 72 68 67 66 65 66 65 66 65 63
78 78 78 79 79 79 70 69 71 81 79 79 78 79 78 80 74 77 70 69 69 70 74 77 73 74 74 76 76 68 72 66 66 66 67 66 66 65 66 67 64 64 62
78 78 78 79 78 80 69 67 69 78 80 80 79 79 79 79 79 76 76 74 73 75 73 75 78 78 78 78 75 72 69 67 65 66 66 63 65 64 66 66 65 64 61
79 79 80 79 79 80 66 65 66 76 78 79 81 80 80 79 73 68 75 75 75 74 72 68 69 72 70 69 68 68 66 65 63 64 66 64 64 64 64 64 66 63 61
81 81 80 81 75 79 67 63 66 79 78 79 80 81 70 75 67 64 73 76 74 75 75 73 69 68 66 69 66 70 69 65 64 62 65 64 63 63 60 63 63 62 60

GFSMA_sfc_temp_063.txt.gz
Temp
72 72 72 72 72 72 72 71 72 75 73 75 75 75 74 73 74 73 73 80 81 81 81 82 81 81 81 81 80 80 80 80 80 80 80 79 79 79 79 79 79 79 78
72 72 72 71 72 72 72 72 70 72 72 73 75 75 75 74 74 73 73 75 80 81 81 82 82 82 81 81 81 80 80 80 80 79 79 79 79 79 79 79 78 78 78
73 73 72 71 72 72 72 72 71 71 71 75 75 75 75 74 74 73 73 72 76 81 81 81 81 81 81 81 81 80 80 80 80 79 79 79 79 79 79 78 78 78 78
74 72 72 72 73 72 71 71 70 70 71 72 72 72 73 74 74 73 73 73 73 75 79 81 81 80 81 81 81 80 80 79 79 79 79 79 79 78 78 77 78 78 77
75 73 72 72 73 72 71 71 70 71 71 71 73 72 73 73 73 77 73 73 72 74 73 78 79 80 81 82 82 81 81 80 79 79 78 77 78 78 78 77 77 77 77
75 73 72 73 72 72 71 72 74 73 71 69 77 74 73 72 72 72 73 75 72 74 73 73 73 75 80 82 82 81 81 80 79 79 78 77 77 77 77 77 76 77 77
75 73 72 72 72 72 72 72 72 71 70 68 68 68 69 71 71 71 71 72 72 74 72 72 71 72 73 79 79 80 81 81 80 79 79 77 77 77 77 76 75 76 76
75 75 73 72 71 72 72 72 72 69 69 67 66 64 63 68 70 71 70 72 71 73 73 73 72 72 71 71 74 79 80 80 81 80 79 78 77 76 75 75 75 75 75
76 76 74 73 72 72 72 71 72 70 68 67 68 67 62 63 63 68 70 70 71 70 71 72 72 72 71 71 74 76 79 78 80 81 79 77 76 76 75 75 75 75 75
76 77 75 74 73 72 72 71 73 70 69 68 67 70 68 66 65 64 67 69 69 70 70 70 71 72 72 70 74 76 77 77 78 80 78 77 77 77 77 76 76 75 75
75 77 76 74 73 72 72 72 72 71 70 68 67 66 66 66 64 64 63 66 67 68 69 70 70 70 71 70 70 72 76 76 76 77 77 78 78 78 78 77 77 77 76
73 75 77 75 74 73 72 72 72 72 71 70 67 67 68 68 66 64 62 63 65 69 69 69 69 70 70 70 74 75 76 75 75 75 75 76 77 78 79 79 78 78 78
70 73 74 74 73 73 73 73 72 72 71 70 70 68 67 68 67 66 65 64 64 66 67 68 69 69 72 69 71 75 76 74 73 73 73 74 75 76 78 79 79 79 79
75 74 76 75 75 74 74 73 72 72 72 71 71 69 68 67 66 67 67 66 63 62 63 68 68 71 71 70 71 74 71 72 72 71 71 71 72 73 75 75 76 76 76
75 75 75 76 75 75 74 73 73 72 72 71 70 70 69 68 67 67 66 67 67 63 63 67 68 69 72 70 72 71 70 72 71 70 70 70 70 71 72 73 73 72 72
73 75 73 75 74 75 75 74 73 72 72 72 72 70 70 69 68 67 67 66 64 65 63 66 68 69 70 73 73 72 72 72 71 70 69 69 69 70 70 71 71 70 70
73 74 73 73 74 75 75 74 73 74 73 73 72 71 71 70 69 67 66 65 64 64 64 66 66 67 67 68 71 72 72 71 71 69 69 69 68 68 69 69 69 69 69
73 73 72 73 74 76 75 75 75 76 74 73 73 72 72 73 69 69 67 66 65 64 65 64 65 66 66 66 68 68 71 74 72 71 68 68 67 67 67 67 67 66 66
75 72 74 73 73 75 75 75 76 76 75 75 75 73 74 71 71 70 68 67 65 66 64 63 70 65 66 65 65 65 66 69 72 72 67 67 67 66 66 65 64 63 62
75 74 74 76 75 75 76 76 76 76 75 75 75 75 75 73 73 73 71 70 69 66 63 64 68 67 64 66 65 65 64 64 71 75 74 72 69 67 66 63 63 64 60
77 77 76 75 76 77 78 76 76 76 75 75 75 75 76 76 74 74 76 73 70 68 69 66 68 62 65 63 65 68 71 75 71 73 73 70 68 65 65 64 66 66 62
75 76 75 76 74 78 73 71 76 77 76 76 75 75 76 74 73 70 70 72 75 72 71 70 71 71 71 71 73 73 66 67 64 70 69 67 67 65 66 66 66 64 62
75 74 75 76 76 77 69 69 70 79 78 77 76 77 77 78 73 75 70 68 68 68 72 78 72 72 73 75 75 69 67 66 66 66 68 66 65 64 65 66 64 63 62
74 74 75 75 76 77 67 66 68 76 78 78 77 77 77 78 77 75 74 74 72 72 72 73 75 77 79 77 72 70 68 68 67 66 67 64 64 64 66 67 64 63 61
76 75 76 76 75 77 65 64 66 75 76 77 78 78 77 77 72 67 73 73 74 75 71 67 68 69 69 68 66 67 65 64 64 66 66 64 64 64 65 65 66 63 61
78 78 77 77 73 77 66 62 64 76 75 76 77 78 69 74 66 64 73 75 74 77 77 74 71 68 66 70 66 69 68 65 65 64 66 63 63 63 61 63 64 63 61

GFSMA_sfc_temp_069.txt.gz
Temp
86 87 82 87 86 86 86 85 86 88 88 88 89 88 88 87 88 90 90 81 81 81 82 82 81 81 81 80 80 80 80 80 80 80 80 80 79 79 79 79 79 79 78
85 87 83 86 85 87 86 86 86 86 88 89 89 87 86 87 86 87 91 88 81 81 81 82 82 82 81 81 80 80 80 80 80 80 79 79 79 79 79 79 79 79 78
85 84 83 82 86 85 84 85 84 85 89 90 87 87 88 86 87 86 89 90 88 80 81 81 82 81 81 81 81 81 80 80 80 80 79 79 79 79 79 78 78 78 78
84 84 87 83 85 85 87 85 83 88 89 89 87 88 87 87 86 86 89 90 90 92 83 81 81 81 81 82 81 81 81 80 80 79 79 79 79 79 78 78 78 78 78
84 86 87 85 82 85 86 87 87 87 87 89 89 88 87 87 88 91 87 87 89 89 91 82 79 80 81 82 82 81 81 80 80 79 79 79 79 78 78 78 78 78 77
85 85 87 83 83 82 85 87 85 86 86 86 90 87 88 89 90 90 90 90 89 88 89 86 88 88 80 81 81 82 81 81 80 80 79 78 78 78 78 78 77 77 77
85 83 86 84 86 85 85 84 83 82 85 84 85 84 86 88 87 89 90 91 88 88 88 88 87 89 89 79 80 80 81 81 81 79 79 78 78 77 77 76 76 76 76
86 85 83 84 83 84 81 83 84 86 86 85 85 85 83 85 88 90 89 89 88 91 89 87 86 85 86 88 85 79 80 80 81 81 80 79 78 77 76 76 76 76 76
87 85 84 83 83 84 82 83 84 83 85 84 82 85 81 82 85 87 86 88 87 89 90 88 87 86 85 86 83 83 79 78 79 80 81 78 77 76 76 76 76 76 76
86 86 85 84 83 86 82 82 84 85 84 84 84 85 84 84 83 83 87 89 87 87 87 89 90 87 86 87 84 81 78 77 78 79 80 78 77 76 77 77 76 76 76
85 86 85 85 82 84 83 83 82 81 85 86 85 84 82 85 82 83 82 86 90 90 90 89 91 90 89 88 89 84 77 76 77 77 79 78 78 78 78 78 77 77 77
87 85 86 85 85 83 83 84 83 82 82 84 85 84 86 85 85 84 83 83 83 88 90 91 89 90 91 91 87 80 77 76 76 76 76 76 78 79 79 79 79 78 78
86 85 84 84 86 85 84 84 83 83 83 83 82 86 86 86 86 86 84 85 83 87 89 91 91 90 91 90 90 80 77 74 74 73 73 74 75 77 78 79 79 79 79
87 86 85 86 85 85 85 84 85 86 85 84 83 83 87 87 85 85 84 83 82 85 86 85 91 91 90 90 88 77 85 73 72 72 71 72 73 74 75 76 77 77 78
87 85 86 85 85 85 85 85 86 84 84 84 84 83 85 87 86 86 85 85 82 79 82 88 87 88 90 90 87 88 87 79 72 71 70 70 71 72 73 73 74 74 74
83 85 84 85 85 85 85 84 85 85 83 85 86 83 83 87 86 85 85 85 83 82 79 89 88 88 88 90 88 84 86 77 73 70 69 69 70 71 71 72 72 71 72
83 83 84 84 85 85 85 83 83 85 83 83 84 83 83 84 86 87 86 85 83 82 80 86 89 87 82 84 87 87 86 85 87 70 69 69 68 69 70 70 70 70 70
83 83 83 83 84 85 85 83 83 86 83 83 84 83 83 86 82 83 86 82 83 83 81 78 84 86 83 84 84 83 87 91 89 78 69 68 68 68 68 69 69 68 68
83 83 83 82 84 85 84 84 84 85 85 85 85 84 84 84 82 85 84 85 87 85 83 81 82 87 87 86 85 83 82 84 87 78 69 67 67 67 67 66 65 65 64
82 82 82 83 84 85 85 85 85 84 84 86 86 85 85 85 83 83 84 83 83 83 84 82 83 84 85 86 85 82 83 88 87 89 83 76 71 68 67 65 64 63 60
83 83 82 83 84 85 88 84 85 85 84 84 85 85 86 83 77 79 87 85 83 83 85 84 84 85 85 86 84 86 83 84 84 85 85 85 75 71 71 66 66 65 62
81 82 82 82 82 86 76 72 79 85 85 84 83 85 85 78 77 71 70 72 79 82 80 82 84 83 82 83 86 85 83 80 78 88 77 76 71 69 70 66 66 64 62
82 81 81 82 82 83 70 69 70 84 85 85 84 84 86 90 80 84 73 68 69 68 71 80 80 81 81 83 83 80 77 75 74 80 72 69 73 73 72 69 64 63 62
80 80 81 82 82 83 68 66 68 81 83 84 85 84 84 85 85 84 84 84 85 85 81 81 81 81 83 84 83 80 75 74 75 75 73 66 77 74 73 71 64 63 61
80 80 81 81 81 82 65 64 67 82 82 82 84 84 84 84 76 68 81 82 83 85 79 68 69 69 68 67 70 76 71 71 71 71 70 67 69 68 66 65 65 62 59
82 84 82 82 76 81 67 62 67 83 82 84 83 83 70 78 68 64 79 81 80 83 85 85 84 76 71 74 66 71 73 70 70 69 70 66 65 65 62 63 65 64 63

GFSMA_sfc_temp_072.txt.gz
Temp
89 93 91 94 95 94 93 92 93 94 93 94 95 94 95 94 95 97 93 81 82 82 82 82 82 82 81 81 81 81 81 81 80 80 80 80 80 80 79 80 79 79 79
87 91 91 94 93 95 95 93 91 93 95 96 94 94 93 94 93 94 96 89 82 82 82 83 82 82 82 81 81 81 81 80 80 80 80 80 79 79 80 80 79 79 79
88 88 92 93 94 93 90 91 90 93 95 96 93 93 94 92 93 91 96 96 87 81 82 82 82 82 82 82 82 81 81 81 80 80 80 80 80 79 79 79 79 79 79
89 88 92 92 89 92 95 93 92 93 94 91 93 95 94 94 92 91 94 97 97 94 83 82 82 82 82 82 82 82 81 81 80 80 80 79 79 79 79 79 79 79 78
92 91 90 91 90 92 94 93 93 92 91 95 95 94 93 94 95 97 92 93 93 96 97 82 81 81 81 82 82 82 82 81 80 80 80 79 79 79 79 78 78 78 77
91 91 89 90 91 93 93 94 91 93 94 95 98 94 95 96 97 96 95 97 96 96 96 92 91 90 81 82 82 82 82 81 81 80 80 79 79 78 78 78 77 77 77
91 90 92 90 91 89 91 89 90 88 92 93 91 91 93 93 93 97 97 99 95 95 97 97 93 96 91 81 81 81 81 82 82 81 80 79 79 78 78 77 77 77 77
91 91 90 90 87 89 88 88 87 92 92 93 91 92 86 90 94 97 97 98 97 99 97 93 93 90 91 94 91 81 80 81 81 81 81 80 79 78 78 77 76 77 77
92 90 90 91 88 85 90 89 89 88 91 91 89 90 86 86 90 94 92 95 94 96 98 95 93 92 91 92 88 86 80 79 80 81 81 80 78 77 77 77 77 77 77
92 92 91 90 88 91 87 89 91 91 89 89 91 93 91 89 86 84 93 94 94 94 93 96 97 94 92 93 89 83 80 79 79 80 80 80 78 78 77 78 77 77 77
91 93 91 89 88 92 89 88 87 86 92 92 93 91 89 93 90 88 88 91 96 98 98 96 98 97 95 94 95 88 79 77 78 78 79 80 79 78 79 79 78 77 77
93 91 92 90 90 91 89 90 87 87 88 90 93 91 92 91 91 90 89 89 90 95 99 99 97 97 98 98 93 82 79 77 76 77 77 78 78 79 80 80 79 79 78
94 92 90 89 91 89 90 90 88 87 88 89 86 92 94 93 94 92 90 90 90 94 95 99 99 98 99 98 97 83 78 75 75 74 74 75 76 77 78 79 80 80 79
95 93 91 91 91 91 91 90 89 91 89 89 87 88 93 94 94 93 90 89 87 91 95 90 99 99 99 98 94 79 91 74 73 72 72 72 73 74 75 77 77 78 78
95 92 91 90 91 91 90 90 91 89 89 88 89 88 90 95 95 94 93 92 88 84 88 95 93 96 96 98 94 95 94 82 73 71 70 71 71 72 73 74 74 74 74
90 92 90 90 90 90 90 88 91 90 88 91 92 89 88 93 93 93 93 92 91 88 85 95 96 97 95 95 93 93 93 80 74 71 70 69 70 71 72 72 72 72 72
89 88 89 89 90 90 90 88 88 90 89 88 89 89 88 88 92 94 94 93 91 91 86 92 97 97 91 88 90 92 93 93 94 73 71 69 69 69 70 71 71 71 71
88 88 89 89 89 90 90 88 88 91 89 88 88 88 88 92 87 87 91 88 90 91 89 83 88 92 91 92 90 87 89 95 95 86 71 70 68 67 67 68 68 68 68
88 89 88 88 88 89 90 90 89 89 90 90 90 89 89 89 87 90 90 91 93 91 90 89 88 94 94 95 92 91 91 91 94 82 73 70 68 67 66 65 64 64 64
87 87 88 88 89 90 90 91 91 89 89 91 91 91 91 90 89 88 88 87 88 88 90 90 90 91 94 94 93 91 91 96 95 98 87 80 74 68 66 65 64 64 62
88 88 88 88 89 91 94 90 90 90 89 89 90 91 91 88 80 81 91 90 89 89 91 92 92 93 94 94 91 93 91 93 93 88 90 87 81 84 80 68 68 66 63
87 87 87 88 88 93 79 74 83 90 90 89 88 90 91 82 80 72 71 71 77 84 85 88 90 89 86 89 93 91 90 89 84 90 79 75 84 84 85 82 72 65 63
87 86 86 87 87 89 72 70 72 90 90 90 89 89 91 96 84 91 76 69 70 69 70 81 81 83 84 86 87 84 84 81 81 82 78 74 82 80 84 78 66 64 62
86 86 86 87 87 89 70 67 69 86 88 88 89 90 89 89 90 89 90 89 89 90 85 84 83 84 85 87 85 84 79 80 81 83 82 70 82 79 77 77 66 63 60
86 86 87 86 86 87 67 66 70 87 87 86 88 89 89 88 79 70 86 86 87 89 84 71 71 71 70 69 72 79 76 76 74 73 73 71 70 70 66 68 66 61 59
86 90 88 88 81 87 69 62 69 89 87 90 89 87 72 81 70 65 84 85 84 86 89 90 90 79 71 80 67 78 82 74 73 70 73 70 68 66 64 64 65 63 61